Regional Weather Roundup
Issued by NWS

Home | Current Version | Previous Version | Graphics & Text | Print | Product List | Glossary On
Versions: 1 2 3 4 5 6 7 8 9 10 11 12 13 14 15 16 17 18 19 20 21 22 23 24 25 26 27 28 29 30 31 32 33 34 35 36 37 38 39 40 41 42 43 44 45 46 47 48 49 50
000
ASUS43 KBIS 211001
RWRND

NORTH DAKOTA REGIONAL WEATHER ROUNDUP
NATIONAL WEATHER SERVICE BISMARCK ND
500 AM CDT TUE APR 21 2015

NOTE: "FAIR" INDICATES FEW OR NO CLOUDS BELOW 12,000 FEET WITH NO
SIGNIFICANT WEATHER AND/OR OBSTRUCTIONS TO VISIBILITY.


NDZ001>003-009>011-017-211100-
NORTHWEST NORTH DAKOTA

CITY           SKY/WX    TMP DP  RH WIND       PRES   REMARKS
WILLISTON      MOCLDY    33  24  69 NE5       29.86R
MINOT          PTCLDY    29  20  69 NW9       29.83R
MINOT AFB      CLEAR     26  23  88 NW9       29.83R WCI  17
$$

NDZ018>021-031>035-040>046-211100-
SOUTHWEST NORTH DAKOTA

CITY           SKY/WX    TMP DP  RH WIND       PRES   REMARKS
BISMARCK       FLURRIES  33  31  92 NW9       29.84R
DICKINSON      CLOUDY    34  19  54 NE10      29.80S
GARRISON         N/A     32  30  92 NW9       29.83R
HETTINGER ARPT CLOUDY    35  17  47 N12       29.81R
$$

NDZ004>008-012>016-024-026-027-054-211100-
NORTHEAST NORTH DAKOTA

CITY           SKY/WX    TMP DP  RH WIND       PRES   REMARKS
GRAND FORKS    FLURRIES  33  28  81 N21G31    29.65R
GRND FRKS AFB  CLOUDY    32  27  80 N20G28    29.65S
DEVILS LAKE    CLOUDY    34  25  69 N18G24    29.73R
$$

NDZ022-023-025-028>030-036>039-047>053-211100-
SOUTHEAST NORTH DAKOTA

CITY           SKY/WX    TMP DP  RH WIND       PRES   REMARKS
FARGO          CLOUDY    34  27  75 NW20G28   29.65R
JAMESTOWN      CLOUDY    33  23  66 NW18G25   29.72R
$$




USA.gov is the U.S. government's official web portal to all federal, state and local government web resources and services.